Tracking 19795 objects as of 19-Jul-2019
HD Live streaming from Space Station
objects crossing your sky now

FENGYUN 1C DEB

Track FENGYUN 1C DEB now!
10-day predictions


NORAD ID: 41832
Int'l Code: 1999-025EYK
Perigee: 814.2 km
Apogee: 909.3 km
Inclination: 98.9 °
Period: 102.0 minutes
Semi major axis: 7232 km
RCS: Unknown
Launch date: May 10, 1999
Source: People's Republic of China (PRC)
Launch site: Taiyaun Space Center, China (TSC)

Note: This is SATELLITE DEBRIS
aabbcc
Your satellite tracking list
Your tracking list is empty




NASA's NSSDC Master Catalog

Two Line Element Set (TLE):
1 41832U 99025EYK 19199.83177669  .00000274  00000-0  17220-3 0  9997
2 41832  98.9010 259.3034 0065753  52.3812 308.3303 14.11397976142678
Source of the keplerian elements: AFSPC